Time,TemperatureF,DewpointF,PressureIn,WindDirection,WindDirectionDegrees,WindSpeedMPH,WindSpeedGustMPH,Humidity,HourlyPrecipIn,Conditions,Clouds,dailyrainin,SoftwareType,DateUTC
2013-02-05 00:00:00,4.0,-6.0,30.02,East,90,4.0,6.0,65,0.00,,,0.00,Rainwise IP-100,2013-02-05 05:00:00,
2013-02-05 00:05:00,4.0,-6.0,30.02,East,90,2.0,5.0,66,0.00,,,0.00,Rainwise IP-100,2013-02-05 05:05:00,
2013-02-05 00:10:00,4.0,-6.0,30.01,East,90,1.0,5.0,65,0.00,,,0.00,Rainwise IP-100,2013-02-05 05:10:00,
2013-02-05 00:15:00,4.0,-6.0,30.01,NW,315,4.0,7.0,65,0.00,,,0.00,Rainwise IP-100,2013-02-05 05:15:00,
2013-02-05 00:20:00,4.0,-6.0,30.01,NW,315,0.0,5.0,65,0.00,,,0.00,Rainwise IP-100,2013-02-05 05:20:00,
2013-02-05 00:25:00,3.0,-6.0,30.01,NW,315,0.0,1.0,67,0.00,,,0.00,Rainwise IP-100,2013-02-05 05:25:00,
2013-02-05 00:30:00,3.0,-6.0,30.01,NW,315,0.0,2.0,67,0.00,,,0.00,Rainwise IP-100,2013-02-05 05:30:00,
2013-02-05 00:35:00,3.0,-6.0,30.01,NW,315,0.0,0.0,68,0.00,,,0.00,Rainwise IP-100,2013-02-05 05:35:00,
2013-02-05 00:40:00,3.0,0.0,30.02,WSW,247,4.0,6.0,71,0.00,,,0.00,Rainwise IP-100,2013-02-05 05:40:00,
2013-02-05 00:45:00,3.0,-6.0,30.02,SSE,157,0.0,6.0,69,0.00,,,0.00,Rainwise IP-100,2013-02-05 05:45:00,
2013-02-05 00:50:00,3.0,-6.0,30.01,SSE,157,0.0,2.0,69,0.00,,,0.00,Rainwise IP-100,2013-02-05 05:50:00,
2013-02-05 00:55:00,2.0,0.0,30.01,ESE,112,6.0,7.0,72,0.00,,,0.00,Rainwise IP-100,2013-02-05 05:55:00,
2013-02-05 01:00:00,2.0,0.0,30.03,East,90,6.0,7.0,73,0.00,,,0.00,Rainwise IP-100,2013-02-05 06:00:00,
2013-02-05 01:05:00,3.0,-6.0,30.03,ESE,112,2.0,7.0,69,0.00,,,0.00,Rainwise IP-100,2013-02-05 06:05:00,
2013-02-05 01:10:00,3.0,0.0,30.02,ESE,112,1.0,4.0,70,0.00,,,0.00,Rainwise IP-100,2013-02-05 06:10:00,
2013-02-05 01:15:00,3.0,0.0,30.02,ESE,112,2.0,3.0,74,0.00,,,0.00,Rainwise IP-100,2013-02-05 06:15:00,
2013-02-05 01:20:00,2.0,0.0,30.02,ESE,112,3.0,4.0,72,0.00,,,0.00,Rainwise IP-100,2013-02-05 06:20:00,
2013-02-05 01:25:00,2.0,0.0,30.02,ESE,112,1.0,5.0,75,0.00,,,0.00,Rainwise IP-100,2013-02-05 06:25:00,
2013-02-05 01:30:00,2.0,0.0,30.03,ENE,67,1.0,5.0,73,0.00,,,0.00,Rainwise IP-100,2013-02-05 06:30:00,
2013-02-05 01:35:00,2.0,-6.0,30.03,ENE,67,5.0,5.0,69,0.00,,,0.00,Rainwise IP-100,2013-02-05 06:35:00,
2013-02-05 01:40:00,2.0,0.0,30.03,ENE,67,2.0,6.0,70,0.00,,,0.00,Rainwise IP-100,2013-02-05 06:40:00,
2013-02-05 01:45:00,2.0,0.0,30.03,ENE,67,2.0,5.0,70,0.00,,,0.00,Rainwise IP-100,2013-02-05 06:45:00,
2013-02-05 01:50:00,2.0,-6.0,30.03,East,90,7.0,8.0,67,0.00,,,0.00,Rainwise IP-100,2013-02-05 06:50:00,
2013-02-05 01:55:00,2.0,-6.0,30.03,East,90,6.0,9.0,66,0.00,,,0.00,Rainwise IP-100,2013-02-05 06:55:00,
2013-02-05 02:00:00,2.0,-6.0,30.04,ENE,67,0.0,8.0,68,0.00,,,0.00,Rainwise IP-100,2013-02-05 07:00:00,
2013-02-05 02:05:00,2.0,-6.0,30.04,ENE,67,2.0,3.0,69,0.00,,,0.00,Rainwise IP-100,2013-02-05 07:05:00,
2013-02-05 02:10:00,2.0,-6.0,30.03,NNE,22,6.0,6.0,64,0.00,,,0.00,Rainwise IP-100,2013-02-05 07:10:00,
2013-02-05 02:15:00,2.0,-6.0,30.03,NNE,22,6.0,7.0,63,0.00,,,0.00,Rainwise IP-100,2013-02-05 07:15:00,
2013-02-05 02:20:00,3.0,-6.0,30.03,ENE,67,6.0,7.0,61,0.00,,,0.00,Rainwise IP-100,2013-02-05 07:20:00,
2013-02-05 02:25:00,3.0,-6.0,30.03,ENE,67,6.0,9.0,61,0.00,,,0.00,Rainwise IP-100,2013-02-05 07:25:00,
2013-02-05 02:30:00,3.0,-6.0,30.03,ENE,67,5.0,7.0,61,0.00,,,0.00,Rainwise IP-100,2013-02-05 07:30:00,
2013-02-05 02:35:00,2.0,-6.0,30.03,NNE,22,2.0,6.0,65,0.00,,,0.00,Rainwise IP-100,2013-02-05 07:35:00,
2013-02-05 02:40:00,2.0,-6.0,30.03,East,90,3.0,7.0,64,0.00,,,0.00,Rainwise IP-100,2013-02-05 07:40:00,
2013-02-05 02:43:00,2.0,-6.0,30.03,East,90,1.0,7.0,62,0.00,,,0.00,Rainwise IP-100,2013-02-05 07:43:00,
2013-02-05 02:47:00,2.0,-6.0,30.03,ESE,112,5.0,6.0,62,0.00,,,0.00,Rainwise IP-100,2013-02-05 07:47:00,
2013-02-05 02:52:00,2.0,-6.0,30.04,SE,135,7.0,7.0,65,0.00,,,0.00,Rainwise IP-100,2013-02-05 07:52:00,
2013-02-05 02:57:00,3.0,-6.0,30.04,ENE,67,4.0,10.0,62,0.00,,,0.00,Rainwise IP-100,2013-02-05 07:57:00,
2013-02-05 03:02:00,3.0,-6.0,30.03,ENE,67,8.0,9.0,63,0.00,,,0.00,Rainwise IP-100,2013-02-05 08:02:00,
2013-02-05 03:07:00,3.0,-6.0,30.03,ENE,67,4.0,10.0,63,0.00,,,0.00,Rainwise IP-100,2013-02-05 08:07:00,
2013-02-05 03:12:00,3.0,-6.0,30.03,NNE,22,6.0,10.0,63,0.00,,,0.00,Rainwise IP-100,2013-02-05 08:12:00,
2013-02-05 03:17:00,2.0,-6.0,30.03,North,360,9.0,9.0,66,0.00,,,0.00,Rainwise IP-100,2013-02-05 08:17:00,
2013-02-05 03:22:00,2.0,-6.0,30.04,NNE,22,3.0,9.0,65,0.00,,,0.00,Rainwise IP-100,2013-02-05 08:22:00,
2013-02-05 03:27:00,2.0,-6.0,30.04,North,360,6.0,9.0,63,0.00,,,0.00,Rainwise IP-100,2013-02-05 08:27:00,
2013-02-05 03:32:00,2.0,-6.0,30.04,ENE,67,6.0,8.0,64,0.00,,,0.00,Rainwise IP-100,2013-02-05 08:32:00,
2013-02-05 03:37:00,2.0,-6.0,30.04,NE,45,4.0,7.0,63,0.00,,,0.00,Rainwise IP-100,2013-02-05 08:37:00,
2013-02-05 03:42:00,2.0,-6.0,30.04,East,90,4.0,7.0,65,0.00,,,0.00,Rainwise IP-100,2013-02-05 08:42:00,
2013-02-05 03:47:00,2.0,-6.0,30.04,East,90,4.0,6.0,66,0.00,,,0.00,Rainwise IP-100,2013-02-05 08:47:00,
2013-02-05 03:52:00,1.0,-6.0,30.05,NE,45,0.0,5.0,64,0.00,,,0.00,Rainwise IP-100,2013-02-05 08:52:00,
2013-02-05 03:57:00,1.0,-6.0,30.05,NE,45,0.0,1.0,66,0.00,,,0.00,Rainwise IP-100,2013-02-05 08:57:00,
2013-02-05 04:02:00,1.0,-6.0,30.05,NE,45,0.0,2.0,67,0.00,,,0.00,Rainwise IP-100,2013-02-05 09:02:00,
2013-02-05 04:07:00,1.0,-6.0,30.05,NE,45,0.0,0.0,66,0.00,,,0.00,Rainwise IP-100,2013-02-05 09:07:00,
2013-02-05 04:12:00,1.0,-6.0,30.05,NE,45,0.0,0.0,66,0.00,,,0.00,Rainwise IP-100,2013-02-05 09:12:00,
2013-02-05 04:17:00,1.0,-6.0,30.05,NE,45,0.0,1.0,67,0.00,,,0.00,Rainwise IP-100,2013-02-05 09:17:00,
2013-02-05 04:22:00,1.0,-6.0,30.05,NE,45,0.0,2.0,67,0.00,,,0.00,Rainwise IP-100,2013-02-05 09:22:00,
2013-02-05 04:27:00,1.0,-6.0,30.05,NE,45,1.0,1.0,68,0.00,,,0.00,Rainwise IP-100,2013-02-05 09:27:00,
2013-02-05 04:32:00,0.0,-6.0,30.05,East,90,1.0,2.0,70,0.00,,,0.00,Rainwise IP-100,2013-02-05 09:32:00,
2013-02-05 04:37:00,0.0,-6.0,30.05,SE,135,5.0,5.0,71,0.00,,,0.00,Rainwise IP-100,2013-02-05 09:37:00,
2013-02-05 04:43:00,0.0,-6.0,30.06,South,180,3.0,6.0,75,0.00,,,0.00,Rainwise IP-100,2013-02-05 09:43:00,
2013-02-05 04:48:00,0.0,-6.0,30.06,SW,225,4.0,4.0,76,0.00,,,0.00,Rainwise IP-100,2013-02-05 09:48:00,
2013-02-05 04:53:00,-1.0,-6.0,30.07,SW,225,3.0,5.0,75,0.00,,,0.00,Rainwise IP-100,2013-02-05 09:53:00,
2013-02-05 04:58:00,0.0,-6.0,30.07,South,180,3.0,5.0,74,0.00,,,0.00,Rainwise IP-100,2013-02-05 09:58:00,
2013-02-05 05:03:00,0.0,-6.0,30.06,South,180,4.0,5.0,73,0.00,,,0.00,Rainwise IP-100,2013-02-05 10:03:00,
2013-02-05 05:08:00,-1.0,-6.0,30.06,South,180,4.0,6.0,77,0.00,,,0.00,Rainwise IP-100,2013-02-05 10:08:00,
2013-02-05 05:13:00,-1.0,-6.0,30.06,South,180,0.0,5.0,76,0.00,,,0.00,Rainwise IP-100,2013-02-05 10:13:00,
2013-02-05 05:18:00,-1.0,-6.0,30.06,South,180,5.0,5.0,79,0.00,,,0.00,Rainwise IP-100,2013-02-05 10:18:00,
2013-02-05 05:23:00,-1.0,-6.0,30.06,SSE,157,6.0,6.0,79,0.00,,,0.00,Rainwise IP-100,2013-02-05 10:23:00,
2013-02-05 05:28:00,-1.0,-6.0,30.06,SSE,157,4.0,6.0,80,0.00,,,0.00,Rainwise IP-100,2013-02-05 10:28:00,
2013-02-05 05:33:00,-2.0,-6.0,30.07,SE,135,5.0,7.0,80,0.00,,,0.00,Rainwise IP-100,2013-02-05 10:33:00,
2013-02-05 05:38:00,-1.0,-6.0,30.07,SE,135,5.0,7.0,80,0.00,,,0.00,Rainwise IP-100,2013-02-05 10:38:00,
2013-02-05 05:43:00,-1.0,-6.0,30.07,SSE,157,6.0,7.0,80,0.00,,,0.00,Rainwise IP-100,2013-02-05 10:43:00,
2013-02-05 05:48:00,-1.0,-6.0,30.07,SSE,157,5.0,6.0,80,0.00,,,0.00,Rainwise IP-100,2013-02-05 10:48:00,
2013-02-05 05:53:00,-2.0,-6.0,30.07,South,180,5.0,7.0,81,0.00,,,0.00,Rainwise IP-100,2013-02-05 10:53:00,
2013-02-05 05:58:00,-2.0,-6.0,30.07,SSE,157,2.0,6.0,81,0.00,,,0.00,Rainwise IP-100,2013-02-05 10:58:00,
2013-02-05 06:03:00,-2.0,-6.0,30.07,West,270,0.0,5.0,82,0.00,,,0.00,Rainwise IP-100,2013-02-05 11:03:00,
2013-02-05 06:08:00,-2.0,-6.0,30.07,South,180,2.0,5.0,83,0.00,,,0.00,Rainwise IP-100,2013-02-05 11:08:00,
2013-02-05 06:13:00,-3.0,-6.0,30.07,SSW,202,3.0,5.0,84,0.00,,,0.00,Rainwise IP-100,2013-02-05 11:13:00,
2013-02-05 06:18:00,-3.0,-6.0,30.07,SW,225,6.0,6.0,86,0.00,,,0.00,Rainwise IP-100,2013-02-05 11:18:00,
2013-02-05 06:23:00,-2.0,-6.0,30.08,SSE,157,3.0,6.0,83,0.00,,,0.00,Rainwise IP-100,2013-02-05 11:23:00,
2013-02-05 06:28:00,-3.0,-6.0,30.08,SSW,202,4.0,6.0,85,0.00,,,0.00,Rainwise IP-100,2013-02-05 11:28:00,
2013-02-05 06:33:00,-2.0,-6.0,30.08,South,180,7.0,7.0,83,0.00,,,0.00,Rainwise IP-100,2013-02-05 11:33:00,
2013-02-05 06:38:00,-2.0,-6.0,30.08,SSE,157,5.0,8.0,82,0.00,,,0.00,Rainwise IP-100,2013-02-05 11:38:00,
2013-02-05 06:43:00,-3.0,-6.0,30.08,South,180,6.0,8.0,84,0.00,,,0.00,Rainwise IP-100,2013-02-05 11:43:00,
2013-02-05 06:48:00,-3.0,-6.0,30.08,South,180,7.0,9.0,84,0.00,,,0.00,Rainwise IP-100,2013-02-05 11:48:00,
2013-02-05 06:53:00,-3.0,-6.0,30.09,SE,135,6.0,9.0,85,0.00,,,0.00,Rainwise IP-100,2013-02-05 11:53:00,
2013-02-05 06:58:00,-2.0,-6.0,30.09,South,180,7.0,8.0,84,0.00,,,0.00,Rainwise IP-100,2013-02-05 11:58:00,
2013-02-05 07:03:00,-2.0,-6.0,30.09,South,180,8.0,8.0,81,0.00,,,0.00,Rainwise IP-100,2013-02-05 12:03:00,
2013-02-05 07:08:00,-3.0,-6.0,30.09,SSE,157,6.0,9.0,84,0.00,,,0.00,Rainwise IP-100,2013-02-05 12:08:00,
2013-02-05 07:13:00,-3.0,-6.0,30.10,SSE,157,6.0,7.0,86,0.00,,,0.00,Rainwise IP-100,2013-02-05 12:13:00,
2013-02-05 07:18:00,-3.0,-6.0,30.10,South,180,6.0,8.0,84,0.00,,,0.00,Rainwise IP-100,2013-02-05 12:18:00,
2013-02-05 07:23:00,-2.0,-6.0,30.10,South,180,6.0,8.0,79,0.00,,,0.00,Rainwise IP-100,2013-02-05 12:23:00,
2013-02-05 07:28:00,-2.0,-6.0,30.10,South,180,7.0,7.0,81,0.00,,,0.00,Rainwise IP-100,2013-02-05 12:28:00,
2013-02-05 07:33:00,-2.0,-6.0,30.11,South,180,7.0,7.0,84,0.00,,,0.00,Rainwise IP-100,2013-02-05 12:33:00,
2013-02-05 07:38:00,-2.0,-6.0,30.11,South,180,6.0,7.0,83,0.00,,,0.00,Rainwise IP-100,2013-02-05 12:38:00,
2013-02-05 07:43:00,-2.0,-6.0,30.11,South,180,6.0,7.0,78,0.00,,,0.00,Rainwise IP-100,2013-02-05 12:43:00,
2013-02-05 07:48:00,-1.0,-6.0,30.11,SSE,157,5.0,6.0,76,0.00,,,0.00,Rainwise IP-100,2013-02-05 12:48:00,
2013-02-05 07:53:00,-1.0,-6.0,30.11,SSE,157,3.0,6.0,76,0.00,,,0.00,Rainwise IP-100,2013-02-05 12:53:00,
2013-02-05 07:58:00,-1.0,-6.0,30.11,SSE,157,2.0,4.0,76,0.00,,,0.00,Rainwise IP-100,2013-02-05 12:58:00,
2013-02-05 08:03:00,-1.0,-6.0,30.11,SSE,157,0.0,3.0,76,0.00,,,0.00,Rainwise IP-100,2013-02-05 13:03:00,
2013-02-05 08:08:00,0.0,-6.0,30.11,SSE,157,0.0,2.0,77,0.00,,,0.00,Rainwise IP-100,2013-02-05 13:08:00,
2013-02-05 08:13:00,-1.0,-6.0,30.12,ESE,112,1.0,5.0,80,0.00,,,0.00,Rainwise IP-100,2013-02-05 13:13:00,
2013-02-05 08:18:00,-1.0,-6.0,30.12,ESE,112,2.0,5.0,82,0.00,,,0.00,Rainwise IP-100,2013-02-05 13:18:00,
2013-02-05 08:23:00,0.0,-6.0,30.13,ESE,112,1.0,5.0,82,0.00,,,0.00,Rainwise IP-100,2013-02-05 13:23:00,
2013-02-05 08:28:00,1.0,0.0,30.13,ESE,112,1.0,2.0,82,0.00,,,0.00,Rainwise IP-100,2013-02-05 13:28:00,
2013-02-05 08:33:00,1.0,0.0,30.13,ESE,112,1.0,2.0,79,0.00,,,0.00,Rainwise IP-100,2013-02-05 13:33:00,
2013-02-05 08:38:00,2.0,0.0,30.13,ESE,112,1.0,2.0,76,0.00,,,0.00,Rainwise IP-100,2013-02-05 13:38:00,
2013-02-05 08:43:00,3.0,0.0,30.13,ESE,112,4.0,4.0,71,0.00,,,0.00,Rainwise IP-100,2013-02-05 13:43:00,
2013-02-05 08:48:00,3.0,-6.0,30.13,ESE,112,2.0,5.0,66,0.00,,,0.00,Rainwise IP-100,2013-02-05 13:48:00,
2013-02-05 08:53:00,5.0,0.0,30.13,ESE,112,0.0,3.0,65,0.00,,,0.00,Rainwise IP-100,2013-02-05 13:53:00,
2013-02-05 08:58:00,6.0,0.0,30.13,ESE,112,0.0,1.0,63,0.00,,,0.00,Rainwise IP-100,2013-02-05 13:58:00,
2013-02-05 09:03:00,7.0,-6.0,30.12,ESE,112,0.0,1.0,58,0.00,,,0.00,Rainwise IP-100,2013-02-05 14:03:00,
2013-02-05 09:08:00,7.0,-6.0,30.12,ESE,112,3.0,3.0,56,0.00,,,0.00,Rainwise IP-100,2013-02-05 14:08:00,
2013-02-05 09:13:00,5.0,-6.0,30.12,ESE,112,4.0,4.0,57,0.00,,,0.00,Rainwise IP-100,2013-02-05 14:13:00,
2013-02-05 09:18:00,5.0,0.0,30.12,ESE,112,4.0,6.0,60,0.00,,,0.00,Rainwise IP-100,2013-02-05 14:18:00,
2013-02-05 09:23:00,5.0,0.0,30.13,East,90,5.0,6.0,63,0.00,,,0.00,Rainwise IP-100,2013-02-05 14:23:00,
2013-02-05 09:28:00,5.0,0.0,30.13,East,90,3.0,5.0,62,0.00,,,0.00,Rainwise IP-100,2013-02-05 14:28:00,
2013-02-05 09:33:00,6.0,0.0,30.13,East,90,2.0,5.0,61,0.00,,,0.00,Rainwise IP-100,2013-02-05 14:33:00,
2013-02-05 09:38:00,7.0,0.0,30.13,East,90,2.0,5.0,59,0.00,,,0.00,Rainwise IP-100,2013-02-05 14:38:00,
2013-02-05 09:43:00,6.0,-6.0,30.12,East,90,5.0,5.0,57,0.00,,,0.00,Rainwise IP-100,2013-02-05 14:43:00,
2013-02-05 09:48:00,7.0,-6.0,30.12,East,90,4.0,6.0,57,0.00,,,0.00,Rainwise IP-100,2013-02-05 14:48:00,
2013-02-05 09:53:00,8.0,-6.0,30.13,ENE,67,4.0,6.0,57,0.00,,,0.00,Rainwise IP-100,2013-02-05 14:53:00,
2013-02-05 09:58:00,7.0,-6.0,30.13,NE,45,4.0,6.0,56,0.00,,,0.00,Rainwise IP-100,2013-02-05 14:58:00,
2013-02-05 10:03:00,8.0,-6.0,30.12,ENE,67,3.0,6.0,57,0.00,,,0.00,Rainwise IP-100,2013-02-05 15:03:00,
2013-02-05 10:08:00,8.0,-6.0,30.12,ENE,67,6.0,6.0,56,0.00,,,0.00,Rainwise IP-100,2013-02-05 15:08:00,
2013-02-05 10:13:00,8.0,-6.0,30.12,ENE,67,4.0,7.0,57,0.00,,,0.00,Rainwise IP-100,2013-02-05 15:13:00,
2013-02-05 10:18:00,9.0,0.0,30.12,ENE,67,3.0,7.0,57,0.00,,,0.00,Rainwise IP-100,2013-02-05 15:18:00,
2013-02-05 10:23:00,9.0,0.0,30.12,East,90,4.0,6.0,55,0.00,,,0.00,Rainwise IP-100,2013-02-05 15:23:00,
2013-02-05 10:28:00,10.0,0.0,30.12,NE,45,1.0,6.0,55,0.00,,,0.00,Rainwise IP-100,2013-02-05 15:28:00,
2013-02-05 10:33:00,10.0,0.0,30.11,ENE,67,2.0,5.0,54,0.00,,,0.00,Rainwise IP-100,2013-02-05 15:33:00,
2013-02-05 10:38:00,11.0,0.0,30.11,ENE,67,2.0,5.0,54,0.00,,,0.00,Rainwise IP-100,2013-02-05 15:38:00,
2013-02-05 10:43:00,11.0,0.0,30.12,ENE,67,2.0,6.0,54,0.00,,,0.00,Rainwise IP-100,2013-02-05 15:43:00,
2013-02-05 10:48:00,10.0,0.0,30.12,ENE,67,5.0,6.0,53,0.00,,,0.00,Rainwise IP-100,2013-02-05 15:48:00,
2013-02-05 10:53:00,11.0,0.0,30.11,East,90,3.0,6.0,52,0.00,,,0.00,Rainwise IP-100,2013-02-05 15:53:00,
2013-02-05 10:58:00,11.0,0.0,30.11,East,90,5.0,7.0,53,0.00,,,0.00,Rainwise IP-100,2013-02-05 15:58:00,
2013-02-05 11:03:00,13.0,4.0,30.11,East,90,1.0,5.0,58,0.00,,,0.00,Rainwise IP-100,2013-02-05 16:03:00,
2013-02-05 11:08:00,13.0,0.0,30.11,ENE,67,1.0,6.0,55,0.00,,,0.00,Rainwise IP-100,2013-02-05 16:08:00,
2013-02-05 11:13:00,14.0,0.0,30.09,ENE,67,4.0,5.0,54,0.00,,,0.00,Rainwise IP-100,2013-02-05 16:13:00,
2013-02-05 11:18:00,13.0,0.0,30.09,ENE,67,3.0,6.0,49,0.00,,,0.00,Rainwise IP-100,2013-02-05 16:18:00,
2013-02-05 11:23:00,15.0,4.0,30.08,NE,45,1.0,4.0,52,0.00,,,0.00,Rainwise IP-100,2013-02-05 16:23:00,
2013-02-05 11:28:00,15.0,4.0,30.08,East,90,0.0,6.0,53,0.00,,,0.00,Rainwise IP-100,2013-02-05 16:28:00,
2013-02-05 11:33:00,15.0,0.0,30.08,East,90,0.0,4.0,47,0.00,,,0.00,Rainwise IP-100,2013-02-05 16:33:00,
2013-02-05 11:38:00,16.0,4.0,30.08,ENE,67,4.0,4.0,50,0.00,,,0.00,Rainwise IP-100,2013-02-05 16:38:00,
2013-02-05 11:43:00,16.0,0.0,30.07,NE,45,4.0,6.0,46,0.00,,,0.00,Rainwise IP-100,2013-02-05 16:43:00,
2013-02-05 11:48:00,15.0,0.0,30.07,ENE,67,3.0,7.0,46,0.00,,,0.00,Rainwise IP-100,2013-02-05 16:48:00,
2013-02-05 11:53:00,16.0,4.0,30.07,East,90,1.0,5.0,55,0.00,,,0.00,Rainwise IP-100,2013-02-05 16:53:00,
2013-02-05 11:58:00,17.0,4.0,30.07,ENE,67,2.0,4.0,50,0.00,,,0.00,Rainwise IP-100,2013-02-05 16:58:00,
2013-02-05 12:03:00,17.0,0.0,30.05,ENE,67,4.0,6.0,44,0.00,,,0.00,Rainwise IP-100,2013-02-05 17:03:00,
2013-02-05 12:08:00,18.0,4.0,30.05,NNW,337,6.0,6.0,47,0.00,,,0.00,Rainwise IP-100,2013-02-05 17:08:00,
2013-02-05 12:13:00,18.0,4.0,30.04,NE,45,2.0,6.0,46,0.00,,,0.00,Rainwise IP-100,2013-02-05 17:13:00,
2013-02-05 12:18:00,19.0,4.0,30.04,NNE,22,3.0,4.0,44,0.00,,,0.00,Rainwise IP-100,2013-02-05 17:18:00,
2013-02-05 12:23:00,18.0,0.0,30.04,East,90,2.0,5.0,44,0.00,,,0.00,Rainwise IP-100,2013-02-05 17:23:00,
2013-02-05 12:28:00,18.0,4.0,30.04,ENE,67,1.0,6.0,47,0.00,,,0.00,Rainwise IP-100,2013-02-05 17:28:00,
2013-02-05 12:33:00,18.0,4.0,30.04,SW,225,2.0,7.0,45,0.00,,,0.00,Rainwise IP-100,2013-02-05 17:33:00,
2013-02-05 12:38:00,18.0,0.0,30.04,SSW,202,6.0,10.0,43,0.00,,,0.00,Rainwise IP-100,2013-02-05 17:38:00,
2013-02-05 12:43:00,17.0,0.0,30.05,ESE,112,2.0,10.0,44,0.00,,,0.00,Rainwise IP-100,2013-02-05 17:43:00,
2013-02-05 12:48:00,17.0,4.0,30.05,South,180,9.0,10.0,45,0.00,,,0.00,Rainwise IP-100,2013-02-05 17:48:00,
2013-02-05 12:53:00,17.0,0.0,30.05,WSW,247,7.0,13.0,44,0.00,,,0.00,Rainwise IP-100,2013-02-05 17:53:00,
2013-02-05 12:58:00,17.0,0.0,30.05,West,270,6.0,10.0,43,0.00,,,0.00,Rainwise IP-100,2013-02-05 17:58:00,
2013-02-05 13:03:00,17.0,4.0,30.04,ENE,67,1.0,7.0,45,0.00,,,0.00,Rainwise IP-100,2013-02-05 18:03:00,
2013-02-05 13:08:00,18.0,0.0,30.04,SSW,202,6.0,6.0,44,0.00,,,0.00,Rainwise IP-100,2013-02-05 18:08:00,
2013-02-05 13:13:00,18.0,4.0,30.03,SW,225,6.0,11.0,46,0.00,,,0.00,Rainwise IP-100,2013-02-05 18:13:00,
2013-02-05 13:18:00,18.0,0.0,30.03,South,180,4.0,10.0,43,0.00,,,0.00,Rainwise IP-100,2013-02-05 18:18:00,
2013-02-05 13:23:00,17.0,0.0,30.03,SE,135,7.0,11.0,43,0.00,,,0.00,Rainwise IP-100,2013-02-05 18:23:00,
2013-02-05 13:28:00,17.0,0.0,30.03,SSW,202,6.0,10.0,44,0.00,,,0.00,Rainwise IP-100,2013-02-05 18:28:00,
2013-02-05 13:33:00,18.0,0.0,30.03,SE,135,2.0,7.0,42,0.00,,,0.00,Rainwise IP-100,2013-02-05 18:33:00,
2013-02-05 13:38:00,20.0,4.0,30.03,North,360,0.0,5.0,43,0.00,,,0.00,Rainwise IP-100,2013-02-05 18:38:00,
2013-02-05 13:43:00,19.0,0.0,30.03,ESE,112,2.0,7.0,40,0.00,,,0.00,Rainwise IP-100,2013-02-05 18:43:00,
2013-02-05 13:48:00,19.0,4.0,30.03,SE,135,4.0,5.0,41,0.00,,,0.00,Rainwise IP-100,2013-02-05 18:48:00,
2013-02-05 13:53:00,20.0,0.0,30.03,NE,45,2.0,4.0,40,0.00,,,0.00,Rainwise IP-100,2013-02-05 18:53:00,
2013-02-05 13:58:00,20.0,4.0,30.03,SW,225,3.0,10.0,41,0.00,,,0.00,Rainwise IP-100,2013-02-05 18:58:00,
2013-02-05 14:03:00,20.0,4.0,30.02,WSW,247,2.0,8.0,42,0.00,,,0.00,Rainwise IP-100,2013-02-05 19:03:00,
2013-02-05 14:08:00,20.0,0.0,30.02,SW,225,8.0,9.0,39,0.00,,,0.00,Rainwise IP-100,2013-02-05 19:08:00,
2013-02-05 14:13:00,18.0,0.0,30.03,South,180,7.0,9.0,39,0.00,,,0.00,Rainwise IP-100,2013-02-05 19:13:00,
2013-02-05 14:18:00,19.0,0.0,30.03,ESE,112,4.0,7.0,39,0.00,,,0.00,Rainwise IP-100,2013-02-05 19:18:00,
2013-02-05 14:23:00,19.0,4.0,30.02,ESE,112,3.0,5.0,42,0.00,,,0.00,Rainwise IP-100,2013-02-05 19:23:00,
2013-02-05 14:28:00,19.0,0.0,30.02,SE,135,2.0,7.0,39,0.00,,,0.00,Rainwise IP-100,2013-02-05 19:28:00,
2013-02-05 14:33:00,20.0,0.0,30.02,ENE,67,5.0,5.0,40,0.00,,,0.00,Rainwise IP-100,2013-02-05 19:33:00,
2013-02-05 14:38:00,19.0,0.0,30.02,ESE,112,4.0,6.0,39,0.00,,,0.00,Rainwise IP-100,2013-02-05 19:38:00,
2013-02-05 14:43:00,20.0,0.0,30.02,East,90,0.0,6.0,38,0.00,,,0.00,Rainwise IP-100,2013-02-05 19:43:00,
2013-02-05 14:48:00,21.0,0.0,30.02,SE,135,4.0,4.0,35,0.00,,,0.00,Rainwise IP-100,2013-02-05 19:48:00,
2013-02-05 14:53:00,20.0,0.0,30.01,ESE,112,4.0,7.0,39,0.00,,,0.00,Rainwise IP-100,2013-02-05 19:53:00,
2013-02-05 14:58:00,19.0,0.0,30.01,SE,135,3.0,7.0,39,0.00,,,0.00,Rainwise IP-100,2013-02-05 19:58:00,
2013-02-05 15:03:00,19.0,0.0,30.02,SE,135,4.0,7.0,39,0.00,,,0.00,Rainwise IP-100,2013-02-05 20:03:00,
2013-02-05 15:08:00,20.0,0.0,30.02,SE,135,1.0,6.0,39,0.00,,,0.00,Rainwise IP-100,2013-02-05 20:08:00,
2013-02-05 15:13:00,21.0,0.0,30.02,NE,45,2.0,4.0,38,0.00,,,0.00,Rainwise IP-100,2013-02-05 20:13:00,
2013-02-05 15:18:00,22.0,0.0,30.02,East,90,6.0,6.0,35,0.00,,,0.00,Rainwise IP-100,2013-02-05 20:18:00,
2013-02-05 15:23:00,21.0,0.0,30.01,WSW,247,5.0,9.0,38,0.00,,,0.00,Rainwise IP-100,2013-02-05 20:23:00,
2013-02-05 15:28:00,20.0,0.0,30.01,SW,225,3.0,8.0,39,0.00,,,0.00,Rainwise IP-100,2013-02-05 20:28:00,
2013-02-05 15:33:00,20.0,0.0,30.02,SW,225,3.0,9.0,39,0.00,,,0.00,Rainwise IP-100,2013-02-05 20:33:00,
2013-02-05 15:38:00,19.0,0.0,30.02,SSW,202,2.0,6.0,39,0.00,,,0.00,Rainwise IP-100,2013-02-05 20:38:00,
2013-02-05 15:43:00,19.0,4.0,30.01,SSE,157,4.0,7.0,41,0.00,,,0.00,Rainwise IP-100,2013-02-05 20:43:00,
2013-02-05 15:48:00,19.0,4.0,30.01,SW,225,5.0,8.0,41,0.00,,,0.00,Rainwise IP-100,2013-02-05 20:48:00,
2013-02-05 15:53:00,19.0,0.0,30.02,SW,225,7.0,7.0,40,0.00,,,0.00,Rainwise IP-100,2013-02-05 20:53:00,
2013-02-05 15:58:00,19.0,4.0,30.02,SW,225,4.0,7.0,43,0.00,,,0.00,Rainwise IP-100,2013-02-05 20:58:00,
2013-02-05 16:03:00,19.0,4.0,30.01,WSW,247,6.0,6.0,42,0.00,,,0.00,Rainwise IP-100,2013-02-05 21:03:00,
2013-02-05 16:08:00,19.0,0.0,30.01,West,270,3.0,6.0,40,0.00,,,0.00,Rainwise IP-100,2013-02-05 21:08:00,
2013-02-05 16:13:00,19.0,0.0,30.01,West,270,1.0,5.0,40,0.00,,,0.00,Rainwise IP-100,2013-02-05 21:13:00,
2013-02-05 16:18:00,19.0,0.0,30.01,West,270,1.0,3.0,40,0.00,,,0.00,Rainwise IP-100,2013-02-05 21:18:00,
2013-02-05 16:23:00,19.0,0.0,30.01,West,270,2.0,2.0,40,0.00,,,0.00,Rainwise IP-100,2013-02-05 21:23:00,
2013-02-05 16:28:00,19.0,4.0,30.01,South,180,1.0,5.0,44,0.00,,,0.00,Rainwise IP-100,2013-02-05 21:28:00,
2013-02-05 16:33:00,19.0,4.0,30.01,SW,225,0.0,3.0,45,0.00,,,0.00,Rainwise IP-100,2013-02-05 21:33:00,
2013-02-05 16:38:00,18.0,0.0,30.01,SW,225,0.0,2.0,42,0.00,,,0.00,Rainwise IP-100,2013-02-05 21:38:00,
2013-02-05 16:43:00,18.0,0.0,30.01,SW,225,0.0,1.0,42,0.00,,,0.00,Rainwise IP-100,2013-02-05 21:43:00,
2013-02-05 16:48:00,18.0,4.0,30.01,SW,225,0.0,0.0,46,0.00,,,0.00,Rainwise IP-100,2013-02-05 21:48:00,
2013-02-05 16:53:00,17.0,0.0,30.01,NE,45,2.0,2.0,44,0.00,,,0.00,Rainwise IP-100,2013-02-05 21:53:00,
2013-02-05 16:58:00,17.0,4.0,30.01,NE,45,1.0,4.0,48,0.00,,,0.00,Rainwise IP-100,2013-02-05 21:58:00,
2013-02-05 17:03:00,16.0,0.0,30.02,NE,45,1.0,2.0,49,0.00,,,0.00,Rainwise IP-100,2013-02-05 22:03:00,
2013-02-05 17:08:00,16.0,4.0,30.02,NE,45,0.0,2.0,50,0.00,,,0.00,Rainwise IP-100,2013-02-05 22:08:00,
2013-02-05 17:13:00,16.0,0.0,30.02,NE,45,0.0,1.0,48,0.00,,,0.00,Rainwise IP-100,2013-02-05 22:13:00,
2013-02-05 17:18:00,16.0,0.0,30.02,NE,45,2.0,3.0,48,0.00,,,0.00,Rainwise IP-100,2013-02-05 22:18:00,
2013-02-05 17:23:00,15.0,4.0,30.02,NE,45,1.0,3.0,50,0.00,,,0.00,Rainwise IP-100,2013-02-05 22:23:00,
2013-02-05 17:28:00,15.0,4.0,30.02,NE,45,2.0,2.0,52,0.00,,,0.00,Rainwise IP-100,2013-02-05 22:28:00,
2013-02-05 17:33:00,15.0,4.0,30.02,NE,45,1.0,2.0,54,0.00,,,0.00,Rainwise IP-100,2013-02-05 22:33:00,
2013-02-05 17:38:00,15.0,4.0,30.02,NE,45,5.0,5.0,52,0.00,,,0.00,Rainwise IP-100,2013-02-05 22:38:00,
2013-02-05 17:43:00,15.0,0.0,30.01,East,90,2.0,6.0,49,0.00,,,0.00,Rainwise IP-100,2013-02-05 22:43:00,
2013-02-05 17:48:00,15.0,4.0,30.01,East,90,3.0,4.0,53,0.00,,,0.00,Rainwise IP-100,2013-02-05 22:48:00,
2013-02-05 17:53:00,15.0,4.0,30.01,East,90,4.0,5.0,54,0.00,,,0.00,Rainwise IP-100,2013-02-05 22:53:00,
2013-02-05 17:58:00,15.0,4.0,30.01,East,90,4.0,6.0,52,0.00,,,0.00,Rainwise IP-100,2013-02-05 22:58:00,
2013-02-05 18:03:00,15.0,4.0,30.01,East,90,5.0,6.0,54,0.00,,,0.00,Rainwise IP-100,2013-02-05 23:03:00,
2013-02-05 18:08:00,15.0,4.0,30.01,East,90,2.0,6.0,55,0.00,,,0.00,Rainwise IP-100,2013-02-05 23:08:00,
2013-02-05 18:13:00,15.0,4.0,30.01,East,90,2.0,5.0,55,0.00,,,0.00,Rainwise IP-100,2013-02-05 23:13:00,
2013-02-05 18:18:00,15.0,4.0,30.01,East,90,2.0,4.0,54,0.00,,,0.00,Rainwise IP-100,2013-02-05 23:18:00,
2013-02-05 18:23:00,15.0,4.0,30.00,East,90,1.0,4.0,55,0.00,,,0.00,Rainwise IP-100,2013-02-05 23:23:00,
2013-02-05 18:28:00,15.0,4.0,30.00,East,90,1.0,5.0,54,0.00,,,0.00,Rainwise IP-100,2013-02-05 23:28:00,
2013-02-05 18:33:00,15.0,4.0,30.01,East,90,0.0,4.0,55,0.00,,,0.00,Rainwise IP-100,2013-02-05 23:33:00,
2013-02-05 18:38:00,15.0,4.0,30.01,East,90,1.0,2.0,55,0.00,,,0.00,Rainwise IP-100,2013-02-05 23:38:00,
2013-02-05 18:43:00,15.0,4.0,30.01,East,90,2.0,3.0,56,0.00,,,0.00,Rainwise IP-100,2013-02-05 23:43:00,
2013-02-05 18:48:00,15.0,4.0,30.01,East,90,2.0,4.0,56,0.00,,,0.00,Rainwise IP-100,2013-02-05 23:48:00,
2013-02-05 18:53:00,15.0,4.0,30.01,East,90,2.0,3.0,55,0.00,,,0.00,Rainwise IP-100,2013-02-05 23:53:00,
2013-02-05 18:58:00,15.0,4.0,30.01,East,90,1.0,2.0,55,0.00,,,0.00,Rainwise IP-100,2013-02-05 23:58:00,
2013-02-05 19:03:00,15.0,4.0,30.01,East,90,0.0,1.0,56,0.00,,,0.00,Rainwise IP-100,2013-02-06 00:03:00,
2013-02-05 19:08:00,14.0,0.0,30.01,East,90,0.0,1.0,56,0.00,,,0.00,Rainwise IP-100,2013-02-06 00:08:00,
2013-02-05 19:13:00,15.0,4.0,30.01,East,90,0.0,2.0,55,0.00,,,0.00,Rainwise IP-100,2013-02-06 00:13:00,
2013-02-05 19:18:00,15.0,4.0,30.01,East,90,0.0,1.0,55,0.00,,,0.00,Rainwise IP-100,2013-02-06 00:18:00,
2013-02-05 19:23:00,15.0,4.0,30.01,East,90,0.0,1.0,56,0.00,,,0.00,Rainwise IP-100,2013-02-06 00:23:00,
2013-02-05 19:28:00,15.0,4.0,30.01,East,90,0.0,0.0,56,0.00,,,0.00,Rainwise IP-100,2013-02-06 00:28:00,
2013-02-05 19:33:00,15.0,8.0,30.01,East,90,0.0,0.0,62,0.00,,,0.00,Rainwise IP-100,2013-02-06 00:33:00,
2013-02-05 19:38:00,15.0,8.0,30.01,East,90,1.0,1.0,63,0.00,,,0.00,Rainwise IP-100,2013-02-06 00:38:00,
2013-02-05 19:43:00,15.0,4.0,30.01,East,90,0.0,1.0,56,0.00,,,0.00,Rainwise IP-100,2013-02-06 00:43:00,
2013-02-05 19:48:00,15.0,4.0,30.01,East,90,0.0,0.0,55,0.00,,,0.00,Rainwise IP-100,2013-02-06 00:48:00,
2013-02-05 19:53:00,15.0,8.0,30.01,East,90,0.0,1.0,62,0.00,,,0.00,Rainwise IP-100,2013-02-06 00:53:00,
2013-02-05 19:58:00,15.0,8.0,30.01,East,90,0.0,0.0,63,0.00,,,0.00,Rainwise IP-100,2013-02-06 00:58:00,
2013-02-05 20:03:00,14.0,4.0,30.00,East,90,0.0,0.0,64,0.00,,,0.00,Rainwise IP-100,2013-02-06 01:03:00,
2013-02-05 20:08:00,14.0,4.0,30.00,East,90,0.0,0.0,66,0.00,,,0.00,Rainwise IP-100,2013-02-06 01:08:00,
2013-02-05 20:13:00,14.0,4.0,30.01,East,90,0.0,0.0,61,0.00,,,0.00,Rainwise IP-100,2013-02-06 01:13:00,
2013-02-05 20:18:00,14.0,4.0,30.01,East,90,0.0,0.0,62,0.00,,,0.00,Rainwise IP-100,2013-02-06 01:18:00,
2013-02-05 20:23:00,14.0,4.0,30.01,East,90,0.0,0.0,65,0.00,,,0.00,Rainwise IP-100,2013-02-06 01:23:00,
2013-02-05 20:28:00,14.0,4.0,30.01,East,90,0.0,0.0,61,0.00,,,0.00,Rainwise IP-100,2013-02-06 01:28:00,
2013-02-05 20:33:00,14.0,4.0,30.01,East,90,0.0,0.0,59,0.00,,,0.00,Rainwise IP-100,2013-02-06 01:33:00,
2013-02-05 20:38:00,14.0,4.0,30.01,East,90,0.0,0.0,59,0.00,,,0.00,Rainwise IP-100,2013-02-06 01:38:00,
2013-02-05 20:43:00,15.0,4.0,30.01,East,90,0.0,1.0,58,0.00,,,0.00,Rainwise IP-100,2013-02-06 01:43:00,
2013-02-05 20:48:00,15.0,8.0,30.01,East,90,0.0,1.0,62,0.00,,,0.00,Rainwise IP-100,2013-02-06 01:48:00,
2013-02-05 20:53:00,14.0,4.0,30.01,East,90,0.0,0.0,62,0.00,,,0.00,Rainwise IP-100,2013-02-06 01:53:00,
2013-02-05 20:58:00,14.0,4.0,30.01,East,90,0.0,0.0,66,0.00,,,0.00,Rainwise IP-100,2013-02-06 01:58:00,
2013-02-05 21:03:00,14.0,4.0,30.01,East,90,0.0,0.0,66,0.00,,,0.00,Rainwise IP-100,2013-02-06 02:03:00,
2013-02-05 21:08:00,14.0,4.0,30.01,East,90,0.0,0.0,67,0.00,,,0.00,Rainwise IP-100,2013-02-06 02:08:00,
2013-02-05 21:13:00,14.0,4.0,30.01,East,90,0.0,0.0,65,0.00,,,0.00,Rainwise IP-100,2013-02-06 02:13:00,
2013-02-05 21:18:00,14.0,4.0,30.01,East,90,0.0,0.0,67,0.00,,,0.00,Rainwise IP-100,2013-02-06 02:18:00,
2013-02-05 21:23:00,14.0,4.0,30.01,East,90,0.0,0.0,65,0.00,,,0.00,Rainwise IP-100,2013-02-06 02:23:00,
2013-02-05 21:28:00,14.0,4.0,30.01,East,90,0.0,0.0,68,0.00,,,0.00,Rainwise IP-100,2013-02-06 02:28:00,
2013-02-05 21:33:00,13.0,4.0,30.01,East,90,0.0,0.0,68,0.00,,,0.00,Rainwise IP-100,2013-02-06 02:33:00,
2013-02-05 21:38:00,13.0,8.0,30.01,East,90,0.0,0.0,75,0.00,,,0.00,Rainwise IP-100,2013-02-06 02:38:00,
2013-02-05 21:43:00,13.0,8.0,30.01,East,90,0.0,0.0,70,0.00,,,0.00,Rainwise IP-100,2013-02-06 02:43:00,
2013-02-05 21:48:00,13.0,8.0,30.01,East,90,0.0,0.0,70,0.00,,,0.00,Rainwise IP-100,2013-02-06 02:48:00,
2013-02-05 21:53:00,14.0,8.0,30.01,East,90,1.0,2.0,73,0.00,,,0.00,Rainwise IP-100,2013-02-06 02:53:00,
2013-02-05 21:58:00,14.0,8.0,30.01,East,90,0.0,1.0,71,0.00,,,0.00,Rainwise IP-100,2013-02-06 02:58:00,
2013-02-05 22:03:00,14.0,4.0,30.01,East,90,0.0,0.0,68,0.00,,,0.00,Rainwise IP-100,2013-02-06 03:03:00,
2013-02-05 22:08:00,14.0,8.0,30.01,East,90,0.0,0.0,69,0.00,,,0.00,Rainwise IP-100,2013-02-06 03:08:00,
2013-02-05 22:13:00,14.0,8.0,30.01,East,90,1.0,1.0,69,0.00,,,0.00,Rainwise IP-100,2013-02-06 03:13:00,
2013-02-05 22:18:00,14.0,8.0,30.01,East,90,0.0,2.0,70,0.00,,,0.00,Rainwise IP-100,2013-02-06 03:18:00,
2013-02-05 22:23:00,14.0,4.0,30.01,East,90,2.0,3.0,68,0.00,,,0.00,Rainwise IP-100,2013-02-06 03:23:00,
2013-02-05 22:28:00,14.0,4.0,30.01,East,90,0.0,4.0,68,0.00,,,0.00,Rainwise IP-100,2013-02-06 03:28:00,
2013-02-05 22:33:00,14.0,4.0,30.01,East,90,0.0,1.0,68,0.00,,,0.00,Rainwise IP-100,2013-02-06 03:33:00,
2013-02-05 22:38:00,14.0,4.0,30.01,East,90,0.0,3.0,67,0.00,,,0.00,Rainwise IP-100,2013-02-06 03:38:00,
2013-02-05 22:43:00,14.0,4.0,30.01,East,90,0.0,3.0,68,0.00,,,0.00,Rainwise IP-100,2013-02-06 03:43:00,
2013-02-05 22:48:00,14.0,4.0,30.01,East,90,1.0,1.0,67,0.00,,,0.00,Rainwise IP-100,2013-02-06 03:48:00,
2013-02-05 22:53:00,14.0,4.0,30.01,East,90,0.0,2.0,67,0.00,,,0.00,Rainwise IP-100,2013-02-06 03:53:00,
2013-02-05 22:58:00,14.0,4.0,30.01,East,90,1.0,1.0,64,0.00,,,0.00,Rainwise IP-100,2013-02-06 03:58:00,
2013-02-05 23:03:00,14.0,4.0,30.01,East,90,2.0,2.0,65,0.00,,,0.00,Rainwise IP-100,2013-02-06 04:03:00,
2013-02-05 23:08:00,14.0,4.0,30.01,East,90,1.0,2.0,65,0.00,,,0.00,Rainwise IP-100,2013-02-06 04:08:00,
2013-02-05 23:13:00,14.0,4.0,30.00,East,90,0.0,2.0,63,0.00,,,0.00,Rainwise IP-100,2013-02-06 04:13:00,
2013-02-05 23:18:00,14.0,4.0,30.00,East,90,0.0,0.0,58,0.00,,,0.00,Rainwise IP-100,2013-02-06 04:18:00,
2013-02-05 23:23:00,14.0,0.0,30.00,East,90,0.0,0.0,56,0.00,,,0.00,Rainwise IP-100,2013-02-06 04:23:00,
2013-02-05 23:28:00,14.0,4.0,30.00,East,90,2.0,0.0,68,0.00,,,0.00,Rainwise IP-100,2013-02-06 04:28:00,
2013-02-05 23:33:00,14.0,4.0,29.99,SW,225,4.0,4.0,66,0.00,,,0.00,Rainwise IP-100,2013-02-06 04:33:00,
2013-02-05 23:38:00,14.0,4.0,29.99,SW,225,3.0,5.0,67,0.00,,,0.00,Rainwise IP-100,2013-02-06 04:38:00,
2013-02-05 23:43:00,14.0,4.0,29.99,West,270,2.0,4.0,68,0.00,,,0.00,Rainwise IP-100,2013-02-06 04:43:00,
2013-02-05 23:48:00,14.0,4.0,29.99,WNW,292,2.0,4.0,68,0.00,,,0.00,Rainwise IP-100,2013-02-06 04:48:00,
2013-02-05 23:53:00,14.0,8.0,29.99,WNW,292,0.0,2.0,71,0.00,,,0.00,Rainwise IP-100,2013-02-06 04:53:00,
2013-02-05 23:58:00,14.0,8.0,29.99,WNW,292,0.0,0.0,71,0.00,,,0.00,Rainwise IP-100,2013-02-06 04:58:00,